Clarks Hill - Strom Thurmond Lake Weather Center

Moon Phase Calendar



Clarks Hill - Strom Thurmond Lake Water Level
Online Cameras

 


      

Current Conditions in Lincolnton
5/20/2022 5:10:53 PM

91°F
Feels Like 88
Clouds
Humidity
26%
Pressure
29.91"
Wind
10.9 mph (SSW)
Dew Point
51°F
UV Index
4/10 (Moderate)
Visibility
6 mi

Hourly Forecast

Date & Time Fri, May 20
5:00 PM
Fri, May 20
6:00 PM
Fri, May 20
7:00 PM
Fri, May 20
8:00 PM
Fri, May 20
9:00 PM
Fri, May 20
10:00 PM
Fri, May 20
11:00 PM
Sat, May 21
12:00 AM
Sat, May 21
1:00 AM
Sat, May 21
2:00 AM
Sat, May 21
3:00 AM
Sat, May 21
4:00 AM
Sat, May 21
5:00 AM
Sat, May 21
6:00 AM
Sat, May 21
7:00 AM
Sat, May 21
8:00 AM
Sat, May 21
9:00 AM
Sat, May 21
10:00 AM
Sat, May 21
11:00 AM
Sat, May 21
12:00 PM
Sat, May 21
1:00 PM
Sat, May 21
2:00 PM
Sat, May 21
3:00 PM
Sat, May 21
4:00 PM
Sat, May 21
5:00 PM
Sat, May 21
6:00 PM
Sat, May 21
7:00 PM
Sat, May 21
8:00 PM
Sat, May 21
9:00 PM
Sat, May 21
10:00 PM
Sat, May 21
11:00 PM
Sun, May 22
12:00 AM
Sun, May 22
1:00 AM
Sun, May 22
2:00 AM
Sun, May 22
3:00 AM
Sun, May 22
4:00 AM
Sun, May 22
5:00 AM
Sun, May 22
6:00 AM
Sun, May 22
7:00 AM
Sun, May 22
8:00 AM
Sun, May 22
9:00 AM
Sun, May 22
10:00 AM
Sun, May 22
11:00 AM
Sun, May 22
12:00 PM
Sun, May 22
1:00 PM
Sun, May 22
2:00 PM
Sun, May 22
3:00 PM
Sun, May 22
4:00 PM
Condition
Clouds

Clouds

Clouds

Clouds

Clouds

Clear

Clouds

Clouds

Clouds

Clouds

Clear

Clouds

Clouds

Clouds

Clouds

Clouds

Clear

Clear

Clear

Clear

Clouds

Clouds

Clouds

Rain

Clouds

Rain

Clouds

Clouds

Clouds

Clouds

Clouds

Clouds

Clouds

Clouds

Clouds

Clouds

Clouds

Clouds

Clouds

Clouds

Clear

Clear

Clear

Clear

Clear

Clouds

Clouds

Clouds
Temperature 91°F91°F90°F85°F80°F76°F75°F76°F76°F74°F72°F70°F68°F67°F67°F71°F76°F80°F85°F88°F90°F90°F86°F86°F85°F82°F80°F77°F75°F76°F74°F72°F71°F70°F68°F68°F67°F66°F67°F70°F75°F80°F84°F87°F90°F92°F91°F89°F
Feels Like 88°F89°F88°F84°F80°F76°F75°F76°F77°F75°F73°F71°F69°F68°F68°F72°F76°F82°F88°F90°F92°F91°F88°F88°F88°F84°F83°F78°F76°F76°F74°F73°F72°F71°F69°F69°F68°F67°F67°F71°F76°F80°F86°F89°F92°F93°F92°F90°F
Cloudiness 100%100%97%87%25%9%33%34%45%45%9%29%20%27%23%20%4%4%3%5%15%29%100%100%100%100%100%100%100%100%100%100%100%100%58%79%77%70%61%58%9%8%9%7%6%11%94%91%
Visibility 6 mi6 mi6 mi6 mi6 mi6 mi6 mi6 mi6 mi6 mi6 mi6 mi6 mi6 mi6 mi6 mi6 mi6 mi6 mi6 mi6 mi6 mi6 mi6 mi6 mi6 mi6 mi6 mi6 mi6 mi6 mi6 mi6 mi6 mi6 mi6 mi6 mi6 mi6 mi6 mi6 mi6 mi6 mi6 mi6 mi6 mi6 mi6 mi
Precipitation 0%0%0%0%0%0%0%0%0%0%0%0%0%0%0%0%9%10%6%7%36%36%18%33%14%35%20%21%13%5%7%15%20%29%45%46%42%31%29%22%0%0%0%0%0%0%5%15%
Humidity 26%27%30%40%44%49%51%59%71%79%82%88%94%96%95%84%74%64%55%49%45%43%51%52%53%58%64%71%68%67%73%80%84%91%95%93%95%97%95%86%74%63%54%48%43%37%38%41%
Dew Point 51°F53°F55°F58°F56°F56°F55°F60°F66°F67°F66°F66°F66°F65°F66°F66°F66°F66°F67°F66°F65°F64°F65°F65°F65°F66°F66°F66°F64°F63°F65°F65°F66°F67°F67°F66°F65°F65°F65°F66°F66°F66°F66°F65°F64°F63°F62°F62°F
Pressure 29.91"29.91"29.91"29.91"29.94"29.97"30"30.03"30.03"30.03"30.03"30.03"30.06"30.09"30.12"30.12"30.12"30.12"30.12"30.09"30.09"30.09"30.06"30.06"30.06"30.03"30.06"30.06"30.06"30.09"30.12"30.12"30.12"30.12"30.15"30.12"30.15"30.15"30.15"30.18"30.18"30.18"30.18"30.18"30.15"30.12"30.09"30.06"
Wind Speed 10.9 mph9.8 mph7 mph5.2 mph5.3 mph5.4 mph5 mph9.5 mph10.2 mph9.7 mph7.5 mph4.6 mph4.1 mph4.3 mph4.2 mph4.6 mph4.1 mph4.3 mph3.1 mph4 mph5.8 mph7.5 mph6.3 mph4 mph3.4 mph2.5 mph4 mph3.2 mph4.4 mph5.5 mph5.2 mph5.2 mph5.7 mph4.8 mph4.5 mph4.1 mph4 mph5.6 mph6.2 mph7.2 mph8.1 mph8.3 mph9.5 mph10.3 mph9.7 mph8.9 mph10 mph10.6 mph
Wind
Direction
201°
SSW
197°
SSW
191°
S
174°
S
186°
S
186°
S
161°
SSE
160°
SSE
173°
S
193°
SSW
197°
SSW
209°
SSW
208°
SSW
190°
S
186°
S
214°
SW
231°
SW
254°
WSW
220°
SW
190°
S
185°
S
182°
S
172°
S
164°
SSE
177°
S
133°
SE
91°
E
111°
ESE
149°
SSE
178°
S
207°
SSW
226°
SW
233°
SW
229°
SW
217°
SW
237°
WSW
220°
SW
188°
S
204°
SSW
234°
SW
246°
WSW
255°
WSW
252°
WSW
250°
WSW
251°
WSW
251°
WSW
263°
W
249°
WSW

Daily Forecast

Date High Low Precip. Humidity
Today
May 20

Clouds
92 °F
68 °F
0%
32%
Saturday
May 21

Rain
90 °F
67 °F
36%
45%
Sunday
May 22

Rain
92 °F
66 °F
83%
37%
Monday
May 23

Rain
78 °F
66 °F
100%
74%
Tuesday
May 24

Rain
66 °F
61 °F
60%
92%
Wednesday
May 25

Rain
77 °F
61 °F
94%
75%
Thursday
May 26

Rain
81 °F
66 °F
97%
78%
Friday
May 27

Rain
81 °F
64 °F
100%
74%
Saturday
May 28

Clear
84 °F
57 °F
0%
37%
Sunday
May 29

Clear
89 °F
60 °F
0%
34%
Monday
May 30

Clouds
93 °F
64 °F
0%
26%
Tuesday
May 31

Clear
95 °F
68 °F
0%
30%
Wednesday
Jun 1

Clouds
92 °F
70 °F
0%
37%
Thursday
Jun 2

Clear
94 °F
68 °F
0%
38%
Friday
Jun 3

Clouds
95 °F
68 °F
0%
36%
Saturday
Jun 4

Rain
102 °F
72 °F
26%
30%

Temperature 8-14 Day Outlook



Precipitation 8-14 Day Outlook




Quick Links
Clarks Hill - Strom Thurmond Lake News
Clarks Hill - Strom Thurmond Lake Photos
Clarks Hill - Strom Thurmond Lake Videos




About Us
Contact Us
Site Map
Search Site
Advertise With Us
   
StromThurmond.USLakes.info
THE CLARKS HILL - STROM THURMOND LAKE WEBSITE

Copyright 2022, Lakes Online
Privacy    |    Legal